Wetbulb
58.90 58.87 58.46 58.20 58.42 58.62 58.64 58.45 58.64 58.77 58.58 58.16 57.98 58.06 58.91 59.26 59.19 61.29 57.98 59.83 64.25 64.08 67.01 64.48 63.43 67.42 71.00 68.20 70.44 70.17 61.78 59.11 56.77 58.57 62.50 66.30 65.05 67.85 68.97 66.96 67.02 68.14 67.74 69.28 71.10
59.36 59.18 58.39 58.07 58.62 58.35 58.01 58.06 58.43 58.15 57.88 58.15 58.07 58.52 59.04 59.65 60.82 58.14 62.13 64.95 63.94 67.05 62.00 62.01 60.19 65.64 66.39 64.93 66.94 65.87 62.13 60.19 64.00 61.94 63.44 64.75 64.83 65.57 65.37 65.06 65.36 66.73 69.06 70.33 71.01
58.98 58.87 58.72 58.10 58.22 58.64 58.62 58.30 58.07 58.05 57.74 57.65 58.07 58.42 58.88 60.54 60.45 60.12 68.22 64.72 66.31 67.30 62.72 62.98 62.13 65.02 63.86 65.21 64.88 65.76 62.32 64.90 64.75 62.63 64.74 64.41 64.94 66.97 64.68 63.39 65.46 65.37 67.60 69.35 70.02
58.65 58.60 58.60 58.16 58.22 58.11 58.64 58.46 57.76 57.44 57.62 57.84 58.29 58.78 59.43 61.73 53.62 63.33 68.85 67.77 68.19 66.00 60.31 60.24 60.91 62.27 61.92 62.06 64.33 62.76 65.99 66.18 65.44 64.84 62.61 63.42 65.94 63.42 64.90 65.05 67.39 68.66 69.29 69.40 68.98
58.33 58.32 57.93 57.34 57.19 57.54 57.85 57.48 57.05 57.10 57.46 57.76 58.26 58.98 61.20 59.60 58.71 68.34 69.82 67.17 62.03 61.29 58.16 59.30 59.59 63.03 61.07 61.98 64.11 64.43 65.57 66.66 66.32 65.14 65.07 64.92 64.78 64.66 64.37 66.53 68.59 69.12 69.12 68.45 68.51
58.13 58.12 57.90 57.26 57.44 57.26 56.81 56.63 56.12 56.39 57.13 57.80 58.51 58.82 61.91 55.72 64.77 66.64 65.01 60.51 59.86 58.93 58.02 59.98 60.47 63.68 62.38 62.23 63.53 65.64 65.92 65.21 66.43 65.74 63.43 62.59 63.22 65.37 64.93 67.16 67.46 67.74 67.50 67.74 68.03
57.54 57.58 57.79 57.71 57.32 57.32 57.01 55.91 55.96 56.25 56.74 57.88 59.03 61.96 60.64 59.20 64.62 62.71 61.27 59.34 58.34 58.43 56.83 60.54 62.63 62.00 62.38 63.47 66.73 66.49 62.59 65.08 63.79 65.02 62.43 62.10 58.18 60.58 65.47 66.48 65.52 65.83 66.98 67.50 68.10
57.39 57.53 57.47 57.36 57.09 56.76 56.59 55.99 56.23 57.18 57.38 58.12 59.50 63.87 57.42 63.40 64.44 62.86 62.69 59.30 58.16 58.62 58.62 59.09 61.41 61.01 61.96 66.89 64.39 62.57 62.93 59.39 63.66 63.66 63.37 60.60 53.45 60.82 64.35 65.34 64.29 64.71 66.11 67.07 68.37
57.41 57.31 57.19 57.10 56.38 55.70 55.20 55.57 58.17 58.71 58.52 59.80 62.76 63.38 56.08 60.76 59.34 62.48 62.90 59.35 58.00 57.88 58.80 57.96 59.87 59.63 62.11 61.36 59.82 60.15 55.41 56.65 60.25 64.42 60.69 59.00 55.52 60.68 65.99 66.46 63.68 64.95 66.39 66.24 68.17
57.55 57.17 56.89 56.37 55.35 54.84 54.51 55.49 58.43 58.54 61.01 64.55 63.63 59.95 59.88 57.31 59.46 60.63 62.30 57.06 56.57 55.97 54.80 55.96 57.90 56.53 60.29 58.58 51.80 51.04 56.88 58.78 58.49 60.49 59.70 57.49 56.27 59.90 62.05 64.52 63.49 65.11 65.89 66.22 67.28
57.23 56.86 56.58 55.77 55.08 54.39 56.05 62.12 61.90 61.88 63.17 56.44 56.64 56.03 57.58 59.23 60.28 59.23 60.18 55.87 55.08 53.81 50.94 54.88 53.46 52.38 56.26 58.74 58.42 56.14 57.15 55.34 60.60 62.81 60.41 57.33 57.08 58.41 61.25 62.57 62.52 63.10 64.39 65.44 66.61
56.57 55.95 55.41 55.20 54.59 54.43 57.84 60.90 60.10 60.90 56.69 58.63 58.25 57.96 59.20 60.43 55.19 57.35 59.61 53.05 52.67 50.18 53.71 52.58 51.14 55.56 57.40 59.05 57.13 56.64 56.07 56.17 59.37 62.62 61.56 59.34 57.81 58.97 59.84 60.57 62.03 63.90 63.30 65.31 67.50
55.78 55.17 54.82 54.43 53.84 57.62 62.00 61.17 63.27 63.27 57.79 56.96 58.34 57.51 58.13 59.79 55.40 55.50 59.00 55.40 53.11 51.61 51.85 51.69 53.11 57.30 55.41 56.28 54.77 54.96 54.49 55.53 55.69 59.52 60.45 59.51 56.95 57.61 59.78 60.94 62.03 63.94 65.62 65.18 65.04
55.27 54.68 54.25 52.94 55.15 63.45 61.45 63.30 63.71 63.57 54.40 54.11 56.19 56.84 58.28 57.61 53.93 58.25 59.45 56.57 53.79 51.95 52.25 53.15 56.26 54.13 54.12 53.86 55.34 52.60 56.00 55.43 55.54 56.42 49.59 59.06 51.02 57.73 59.76 59.04 60.34 62.00 62.66 66.24 68.42
55.06 54.33 53.29 52.21 59.80 61.00 62.04 63.86 63.17 62.37 46.25 53.36 54.88 60.63 57.99 55.72 55.13 55.27 58.39 56.20 52.40 52.28 53.13 51.87 52.43 52.33 52.65 53.57 55.84 53.93 57.99 56.53 56.75 55.58 55.85 54.38 53.02 54.74 61.04 57.72 58.69 62.15 64.75 64.70 65.85
54.64 53.23 52.09 58.88 61.90 62.28 63.55 63.33 61.99 51.98 44.30 50.98 54.98 54.49 54.50 54.81 54.12 55.29 55.34 57.55 56.03 52.48 52.87 52.85 54.81 54.16 53.45 54.00 55.15 56.52 55.85 57.02 57.15 56.00 50.50 53.26 53.41 53.22 58.12 60.07 59.52 62.01 65.22 65.75 65.97
53.61 51.94 52.94 60.79 61.09 63.82 63.10 60.46 52.48 47.09 52.38 50.45 51.66 53.56 54.29 52.97 53.01 53.99 52.55 51.97 51.36 49.48 49.76 50.77 51.31 53.29 53.98 52.79 55.05 54.01 53.96 49.37 48.40 49.11 49.04 55.34 52.50 54.55 60.37 62.86 63.87 62.69 64.67 67.25 68.42
52.30 51.12 57.58 61.16 63.99 62.76 61.48 56.20 48.23 49.54 49.19 53.19 52.73 52.48 51.62 53.03 53.32 52.66 51.94 50.99 52.58 52.44 51.22 48.86 46.18 52.01 55.09 54.09 52.87 53.30 53.74 49.41 40.95 46.46 46.74 55.51 51.36 52.83 60.22 63.64 64.71 64.94 65.19 67.04 67.78
51.16 61.69 62.11 62.65 63.39 62.83 57.54 50.96 50.85 50.72 51.79 50.22 52.30 51.35 51.67 52.34 53.01 52.70 53.20 52.80 53.90 54.84 51.20 50.42 48.76 53.88 55.76 55.81 56.50 54.11 51.13 55.12 50.13 52.92 50.52 51.42 55.12 59.10 60.46 62.35 62.71 63.13 65.42 66.37 66.90
58.05 60.05 60.32 63.63 64.66 61.06 55.83 49.79 52.64 53.14 52.14 51.88 49.54 51.84 50.56 52.16 51.21 51.95 52.22 54.52 53.41 54.49 56.05 53.94 48.87 53.26 54.23 55.77 57.11 55.74 57.43 50.72 51.47 45.26 44.61 48.93 51.53 50.84 57.81 59.54 61.46 62.07 63.02 66.03 68.27
59.10 56.50 62.70 64.35 63.94 58.67 53.11 53.56 53.32 54.67 53.90 50.96 50.89 50.97 51.95 51.47 51.95 51.61 52.54 54.79 55.07 55.19 56.05 54.73 52.77 51.68 54.00 52.59 51.89 53.73 52.07 54.59 53.94 51.68 45.19 45.53 48.17 59.37 59.56 62.06 62.28 61.73 62.45 64.74 67.62
56.60 52.76 63.65 63.63 55.05 57.37 54.44 55.56 52.53 54.08 54.42 52.90 52.55 52.17 51.68 52.71 51.94 51.25 51.03 53.60 56.64 54.91 52.24 55.96 53.03 49.87 51.45 55.36 57.43 54.45 51.01 55.22 49.97 50.38 51.34 45.87 47.03 63.24 63.27 63.79 64.23 63.16 63.79 66.32 66.81
55.26 56.12 63.49 61.78 51.29 53.67 56.58 54.93 54.62 53.38 53.09 52.35 51.48 52.82 53.31 51.57 50.00 51.93 52.29 55.91 55.58 54.26 54.61 56.26 51.93 47.54 48.86 52.71 55.59 52.80 53.27 54.18 52.39 51.47 49.53 45.54 48.23 64.42 64.69 64.70 65.33 63.17 63.52 64.73 65.93
55.54 51.48 58.00 58.62 56.32 55.01 55.18 54.07 52.76 54.90 53.88 53.90 52.71 53.61 52.76 51.40 53.25 51.27 51.75 54.74 55.08 54.61 58.77 56.63 50.61 49.80 46.46 49.00 53.33 51.74 53.33 54.35 53.61 45.60 50.04 49.60 52.77 60.49 62.91 63.62 65.22 66.37 64.48 63.52 64.74
56.24 52.98 58.58 53.28 53.47 54.05 56.57 55.17 52.68 52.37 54.06 55.05 52.91 52.45 52.31 50.73 50.85 50.54 51.68 52.97 53.98 56.17 54.60 53.85 49.23 50.98 51.43 52.01 52.39 52.30 49.54 50.57 53.57 53.28 49.63 51.27 52.63 54.85 62.10 64.36 64.90 66.41 66.99 65.26 63.92
55.36 55.20 59.20 56.76 57.95 55.09 51.60 53.69 53.58 54.08 53.60 52.16 52.03 52.72 52.86 51.68 52.49 50.76 52.22 52.66 51.80 55.05 54.16 54.44 49.75 50.64 49.23 50.63 49.86 49.77 51.93 52.78 53.61 54.26 54.75 53.34 53.73 62.76 65.14 65.59 65.06 64.79 65.67 65.66 64.92
59.19 58.13 55.63 52.97 55.44 54.78 53.93 54.19 54.09 55.40 55.27 54.85 54.16 53.46 52.54 53.47 55.30 55.57 55.53 55.48 55.24 53.13 53.10 51.71 50.72 48.72 46.01 49.89 50.03 47.37 50.75 51.67 52.56 55.41 54.77 51.26 57.46 63.36 63.01 63.80 63.64 63.09 63.20 64.21 64.43
MSLP
1017.74 1017.53 1017.39 1017.17 1016.95 1016.75 1016.53 1016.28 1016.04 1015.81 1015.56 1015.32 1015.09 1014.87 1014.46 1014.07 1013.26 1012.46 1010.28 1009.72 1009.37 1009.73 1009.62 1007.97 1007.45 1006.68 1006.07 1004.94 1005.35 1006.52 1007.37 1007.38 1008.81 1009.03 1008.55 1007.96 1007.19 1007.52 1007.50 1007.53 1007.36 1007.81 1008.62 1009.63 1010.78
1017.74 1017.52 1017.34 1017.15 1016.91 1016.65 1016.41 1016.21 1015.95 1015.75 1015.52 1015.22 1015.00 1014.65 1014.32 1014.01 1012.46 1010.05 1009.85 1009.70 1009.77 1009.80 1008.82 1007.41 1006.37 1006.04 1004.92 1004.30 1004.55 1005.23 1006.44 1006.94 1007.94 1009.68 1008.81 1008.49 1007.75 1007.78 1007.60 1007.70 1007.79 1008.08 1008.84 1010.28 1011.00
1017.71 1017.50 1017.24 1017.05 1016.80 1016.52 1016.29 1016.07 1015.85 1015.58 1015.33 1015.06 1014.77 1014.45 1014.17 1013.79 1011.01 1008.17 1009.46 1009.81 1009.86 1009.69 1008.09 1006.88 1006.09 1005.52 1004.07 1003.80 1003.79 1004.66 1005.65 1006.75 1008.19 1009.77 1009.64 1009.07 1008.02 1007.73 1007.24 1007.41 1007.63 1008.21 1009.53 1010.68 1010.93
1017.75 1017.48 1017.18 1016.95 1016.65 1016.38 1016.10 1015.85 1015.67 1015.42 1015.16 1014.84 1014.52 1014.20 1013.94 1012.85 1008.81 1008.45 1009.48 1009.83 1009.83 1009.23 1007.80 1006.77 1005.94 1004.96 1003.57 1003.15 1003.87 1004.72 1005.73 1006.47 1008.40 1009.83 1010.26 1009.84 1008.76 1007.88 1007.33 1007.78 1007.87 1008.56 1009.91 1010.66 1010.75
1017.73 1017.44 1017.13 1016.90 1016.64 1016.31 1015.99 1015.74 1015.51 1015.19 1014.89 1014.60 1014.31 1014.00 1013.21 1010.48 1008.38 1008.44 1009.46 1009.71 1009.29 1008.49 1007.17 1006.21 1005.31 1004.31 1003.23 1003.26 1003.87 1004.26 1005.73 1007.03 1008.29 1009.54 1010.12 1010.63 1010.17 1008.90 1008.60 1008.54 1008.14 1008.84 1009.99 1010.50 1010.48
1017.72 1017.40 1017.02 1016.76 1016.50 1016.15 1015.85 1015.60 1015.31 1015.00 1014.65 1014.35 1014.10 1013.94 1012.05 1008.54 1008.30 1008.30 1008.53 1008.82 1007.90 1007.57 1006.67 1006.06 1004.98 1004.39 1003.70 1003.59 1003.96 1004.64 1005.50 1007.02 1008.47 1009.81 1011.21 1011.33 1011.48 1010.41 1009.34 1008.97 1009.10 1009.63 1009.91 1010.23 1010.41
1017.76 1017.32 1016.91 1016.60 1016.27 1015.93 1015.58 1015.31 1015.04 1014.64 1014.32 1014.06 1013.91 1013.09 1009.66 1008.66 1008.23 1008.22 1008.06 1007.66 1007.55 1006.87 1006.22 1005.89 1005.44 1005.05 1003.97 1003.16 1004.04 1004.93 1005.35 1006.75 1009.30 1010.66 1011.98 1012.52 1012.84 1011.74 1010.58 1009.64 1009.84 1009.90 1010.08 1010.49 1010.77
1017.74 1017.27 1016.82 1016.45 1016.07 1015.67 1015.22 1014.91 1014.67 1014.21 1013.97 1013.81 1013.71 1012.03 1009.01 1008.57 1008.18 1007.99 1007.76 1007.71 1007.75 1007.38 1006.63 1006.31 1006.29 1005.44 1004.20 1003.93 1003.80 1004.17 1004.92 1006.76 1009.54 1011.09 1012.68 1013.16 1013.61 1013.08 1012.44 1010.29 1010.26 1010.45 1010.65 1011.05 1011.17
1017.70 1017.23 1016.75 1016.35 1015.93 1015.45 1015.01 1014.59 1014.17 1013.75 1013.66 1013.42 1012.75 1010.62 1008.03 1009.10 1008.14 1007.43 1007.36 1006.98 1007.29 1007.13 1007.00 1007.05 1006.55 1004.98 1004.15 1003.62 1002.98 1003.58 1004.59 1007.40 1009.23 1010.96 1012.75 1013.92 1014.12 1014.09 1013.04 1011.54 1010.88 1010.82 1010.73 1011.05 1011.18
1017.64 1017.14 1016.65 1016.24 1015.82 1015.30 1014.73 1014.40 1013.89 1013.71 1013.24 1011.93 1010.68 1009.09 1007.60 1007.03 1007.20 1007.33 1007.43 1007.25 1006.90 1006.71 1006.63 1006.47 1005.65 1004.38 1003.34 1002.59 1002.70 1005.55 1004.55 1006.33 1008.44 1010.99 1012.44 1013.24 1014.12 1014.63 1014.34 1013.22 1012.47 1011.13 1010.84 1010.96 1011.23
1017.57 1017.09 1016.51 1016.03 1015.60 1015.11 1014.23 1013.19 1013.01 1011.69 1010.25 1008.45 1007.66 1006.89 1006.68 1007.21 1007.43 1007.10 1007.18 1006.79 1006.54 1006.26 1005.29 1005.46 1004.50 1003.23 1002.23 1002.14 1003.61 1005.25 1006.40 1007.76 1008.42 1009.66 1010.84 1012.14 1013.16 1014.18 1014.77 1014.42 1013.23 1012.91 1011.82 1011.09 1010.80
1017.45 1016.97 1016.40 1015.86 1015.32 1014.83 1014.28 1010.17 1009.88 1009.48 1007.90 1007.57 1007.35 1006.70 1006.82 1006.27 1006.45 1006.69 1006.78 1006.03 1005.88 1005.01 1004.52 1004.67 1003.65 1002.65 1002.40 1002.99 1003.31 1003.48 1004.70 1006.01 1007.15 1008.44 1008.83 1010.91 1012.04 1013.89 1014.38 1014.47 1014.07 1012.87 1013.21 1011.80 1010.93
1017.33 1016.80 1016.26 1015.67 1015.03 1014.22 1011.30 1009.98 1009.53 1009.12 1007.25 1006.52 1006.33 1005.66 1006.11 1005.84 1005.55 1006.05 1006.12 1005.46 1004.97 1004.36 1004.34 1003.26 1002.67 1002.99 1003.68 1003.64 1003.47 1003.19 1003.40 1005.24 1005.76 1006.96 1007.25 1008.68 1010.67 1012.70 1014.11 1014.40 1013.98 1013.28 1013.01 1012.88 1011.65
1017.26 1016.71 1016.16 1015.55 1015.09 1011.06 1009.68 1009.59 1009.13 1009.15 1006.56 1005.75 1005.07 1005.58 1005.82 1005.32 1005.47 1006.04 1005.58 1005.07 1004.68 1003.93 1004.08 1003.27 1003.22 1004.10 1003.81 1003.32 1003.50 1002.62 1003.17 1004.34 1004.93 1005.18 1006.95 1006.92 1007.45 1010.36 1011.95 1013.35 1013.81 1012.98 1013.07 1012.59 1011.70
1017.14 1016.65 1016.13 1016.06 1013.67 1010.16 1009.60 1009.20 1009.17 1008.84 1004.99 1005.01 1004.67 1005.45 1005.13 1004.77 1005.40 1005.75 1005.81 1005.38 1004.28 1004.38 1004.42 1003.13 1003.94 1004.10 1003.62 1003.24 1003.20 1003.16 1004.11 1004.44 1004.40 1004.55 1004.93 1005.23 1005.67 1007.51 1009.74 1011.83 1012.13 1011.88 1012.62 1011.46 1010.49
1016.95 1016.53 1016.07 1014.24 1012.94 1010.15 1009.61 1009.24 1008.83 1007.15 1004.27 1004.25 1004.48 1004.52 1004.29 1004.44 1004.70 1005.49 1005.50 1005.34 1004.69 1004.49 1004.30 1003.67 1004.14 1003.84 1003.32 1003.31 1003.50 1003.67 1003.98 1004.08 1004.31 1004.18 1003.98 1003.75 1004.65 1005.98 1007.59 1008.23 1009.68 1010.52 1010.76 1010.27 1010.44
1016.52 1016.20 1016.03 1013.26 1010.03 1009.82 1009.60 1008.75 1006.88 1004.27 1004.56 1004.12 1003.72 1004.14 1003.48 1003.94 1004.49 1004.63 1004.69 1004.47 1003.78 1003.50 1003.06 1003.62 1003.78 1003.92 1003.98 1003.69 1003.56 1003.74 1003.21 1002.83 1002.95 1002.92 1002.89 1004.18 1003.61 1004.82 1004.61 1005.57 1007.30 1008.35 1009.01 1009.07 1008.70
1015.78 1015.47 1013.56 1011.86 1010.40 1010.22 1009.36 1007.83 1005.45 1004.09 1003.71 1004.16 1004.01 1003.96 1003.36 1003.88 1004.01 1004.30 1004.21 1003.70 1004.27 1003.55 1002.36 1002.15 1002.67 1003.10 1003.50 1003.17 1002.60 1003.19 1002.39 1001.92 1004.02 1002.98 1004.73 1003.96 1002.57 1003.99 1003.54 1003.74 1005.51 1007.05 1008.01 1008.19 1007.62
1014.74 1012.84 1011.28 1009.96 1010.53 1010.29 1008.94 1006.19 1003.70 1003.62 1003.66 1003.79 1003.78 1003.51 1003.32 1004.12 1004.11 1003.95 1003.62 1003.25 1003.95 1004.08 1003.41 1002.21 1002.27 1002.90 1002.99 1003.15 1003.00 1002.56 1002.75 1001.89 1002.49 1003.14 1004.33 1003.67 1002.95 1002.58 1003.19 1003.88 1005.75 1006.32 1006.46 1007.03 1007.38
1014.00 1010.12 1008.70 1009.40 1009.89 1009.56 1007.94 1005.36 1003.82 1004.24 1004.34 1004.20 1003.28 1003.46 1002.64 1003.18 1003.96 1003.71 1003.91 1004.44 1004.46 1004.94 1004.45 1003.43 1003.01 1002.63 1003.00 1003.56 1003.21 1003.10 1004.22 1002.92 1002.48 1004.13 1004.96 1004.51 1002.62 1003.21 1003.05 1003.82 1004.70 1005.17 1005.71 1005.95 1006.77
1013.33 1009.20 1008.57 1009.06 1009.38 1008.31 1006.26 1004.44 1003.90 1004.51 1004.66 1004.13 1003.63 1003.52 1003.48 1003.37 1003.74 1003.40 1003.52 1004.64 1005.25 1004.96 1005.17 1004.25 1003.67 1003.69 1003.15 1003.00 1002.56 1003.14 1003.87 1004.04 1002.92 1006.03 1007.11 1006.06 1005.13 1002.84 1003.15 1003.52 1004.00 1005.78 1006.60 1006.43 1006.25
1011.55 1008.38 1008.51 1008.63 1008.19 1006.61 1005.02 1004.08 1004.36 1004.02 1004.72 1004.26 1004.50 1003.90 1003.86 1003.81 1003.98 1004.09 1004.24 1004.72 1005.93 1005.82 1005.29 1004.82 1004.15 1002.77 1002.89 1002.52 1003.26 1004.68 1006.02 1004.21 1003.48 1005.98 1006.47 1007.30 1007.82 1004.95 1004.37 1004.36 1004.54 1006.13 1007.18 1006.93 1006.76
1010.98 1007.72 1008.26 1008.09 1006.54 1005.11 1004.68 1004.07 1004.27 1004.05 1004.11 1004.25 1004.22 1004.55 1004.57 1004.47 1004.69 1004.81 1005.04 1005.73 1006.60 1006.29 1006.18 1005.93 1004.85 1003.53 1002.74 1002.67 1002.85 1003.55 1003.67 1003.53 1005.01 1006.43 1007.29 1006.99 1005.31 1004.63 1004.82 1004.82 1004.89 1006.43 1007.66 1007.77 1008.65
1011.58 1007.82 1007.02 1007.42 1006.20 1004.69 1003.96 1004.07 1004.11 1004.35 1004.01 1004.12 1004.30 1004.77 1004.86 1004.81 1005.13 1005.13 1005.40 1005.83 1006.91 1006.79 1007.66 1007.75 1005.88 1004.67 1003.58 1004.54 1004.79 1004.33 1004.63 1005.06 1004.58 1007.05 1005.15 1005.15 1004.59 1003.71 1004.62 1005.62 1006.07 1006.55 1007.90 1008.84 1008.86
1011.21 1007.83 1006.55 1005.69 1005.52 1005.04 1004.34 1003.80 1003.83 1003.66 1004.46 1004.28 1004.51 1004.72 1004.72 1004.67 1004.84 1005.15 1005.33 1005.43 1006.42 1007.41 1007.69 1007.06 1006.17 1005.71 1004.95 1004.77 1004.47 1004.27 1005.29 1006.16 1004.50 1003.92 1004.31 1004.30 1005.27 1003.41 1003.86 1005.66 1007.03 1007.38 1008.17 1009.36 1009.51
1011.28 1009.04 1007.59 1006.49 1005.62 1004.80 1004.60 1004.27 1003.91 1003.72 1003.85 1004.08 1004.45 1004.65 1004.89 1005.08 1005.06 1005.17 1005.38 1005.58 1005.73 1006.31 1006.89 1006.87 1006.60 1006.48 1005.94 1005.47 1004.80 1004.22 1004.15 1003.98 1003.89 1004.94 1004.15 1005.29 1005.22 1004.20 1005.45 1006.63 1007.85 1008.38 1009.01 1009.54 1010.30
1011.98 1011.06 1010.12 1007.44 1006.13 1005.21 1004.27 1004.23 1004.33 1004.23 1003.78 1003.84 1003.99 1004.40 1004.60 1005.17 1005.41 1005.71 1005.88 1005.69 1005.91 1006.57 1006.46 1006.76 1006.84 1006.65 1005.77 1005.27 1004.53 1004.21 1003.69 1003.32 1003.14 1003.63 1004.41 1007.19 1006.25 1005.91 1006.23 1007.06 1008.94 1009.78 1010.44 1010.80 1011.26
Wind_Speed
9 9 9 10 10 9 9 9 9 9 9 10 10 10 12 13 18 10 10 6 5 1 7 9 10 10 11 6 4 5 4 4 7 2 8 1 9 6 5 9 6 10 19 20 19
10 10 10 10 10 10 9 9 9 9 10 10 10 12 12 12 13 12 7 6 2 5 12 10 10 8 13 4 5 7 2 4 13 8 3 2 3 9 10 9 6 10 22 21 18
10 10 10 11 11 11 10 10 9 10 10 10 11 11 11 14 12 9 7 5 6 9 15 10 9 9 15 6 3 6 4 7 15 10 5 2 8 9 9 10 11 18 20 20 18
10 10 11 12 12 12 12 11 10 10 10 11 11 11 11 12 0 9 4 8 8 12 10 11 12 13 13 5 3 7 7 8 11 13 10 3 7 2 4 9 14 17 20 20 18
11 11 11 12 12 13 12 11 12 11 11 11 11 11 10 10 8 9 8 10 12 12 11 11 11 12 12 3 5 13 5 12 13 16 6 6 9 6 7 5 8 18 20 19 16
11 12 11 12 12 12 13 13 12 12 12 11 10 10 10 3 4 6 9 11 11 12 8 10 10 4 8 4 3 2 2 14 10 11 4 4 6 11 5 12 17 18 19 16 14
12 13 13 13 14 14 14 14 13 12 12 10 9 9 7 10 3 8 10 7 6 10 8 7 7 10 1 8 6 10 9 11 11 11 7 7 4 3 12 14 16 16 16 12 10
13 13 14 14 15 15 15 15 12 12 11 9 8 11 6 3 3 6 5 5 6 6 11 1 7 13 12 10 6 11 11 10 9 5 7 3 6 10 14 8 16 12 11 12 12
14 14 15 15 15 15 16 16 12 8 9 8 10 10 10 5 11 6 5 3 8 8 7 4 10 15 9 13 15 11 4 6 10 5 8 5 4 10 15 11 10 15 16 14 12
14 14 15 14 15 14 16 13 1 6 9 9 9 10 10 5 5 4 3 4 7 8 8 11 9 11 14 14 3 5 1 8 11 8 9 13 6 5 11 14 5 11 14 14 15
15 15 15 15 14 13 14 7 8 9 15 10 8 4 6 9 8 8 5 8 9 11 12 15 13 13 16 7 5 10 8 12 12 11 14 7 5 12 7 13 11 6 14 16 16
16 16 17 16 16 14 9 7 12 8 2 5 4 2 1 3 9 8 9 8 10 13 11 10 13 15 5 2 7 12 4 11 9 13 12 10 7 12 9 9 11 17 9 12 17
17 17 17 17 17 7 7 7 8 8 9 6 4 4 9 13 5 10 13 4 10 6 11 13 10 10 3 7 11 11 3 7 13 7 4 10 10 16 13 10 15 21 14 13 11
17 18 16 20 6 3 4 4 7 4 9 13 9 7 6 6 7 2 6 6 5 6 7 10 10 1 12 13 11 15 4 2 2 13 6 19 1 17 19 18 17 22 12 20 29
17 17 15 8 13 9 6 7 9 6 7 5 8 5 3 7 9 9 2 7 6 6 10 5 5 10 13 11 7 1 4 7 2 12 12 7 12 13 18 15 18 25 25 15 16
17 17 17 7 8 10 7 9 7 10 2 7 6 8 10 7 5 7 8 10 4 4 9 5 3 8 10 4 7 10 5 7 8 12 13 4 6 10 15 19 20 16 23 19 18
20 17 10 9 2 5 8 8 10 9 6 7 3 8 10 9 8 9 9 12 10 11 13 8 11 11 6 11 10 13 17 11 11 10 3 4 8 2 11 18 23 25 25 22 21
19 14 10 9 6 7 8 11 13 7 4 6 4 4 5 5 8 5 7 8 4 11 5 9 14 14 12 17 7 12 19 10 1 6 7 8 3 4 4 9 18 18 22 24 21
26 7 9 6 9 6 9 12 6 1 4 5 8 10 9 7 7 6 6 9 7 10 10 4 7 9 7 10 12 5 15 19 7 13 5 10 4 8 5 10 20 18 21 20 22
8 8 7 8 8 8 10 16 5 4 3 5 12 2 5 10 7 7 5 7 2 5 10 4 9 9 12 10 12 13 15 10 7 5 8 3 5 11 6 6 11 11 10 13 21
8 7 9 9 7 9 11 16 5 5 5 5 7 4 11 1 9 3 5 9 2 2 8 14 11 2 5 11 14 5 14 20 1 7 2 6 8 9 8 5 10 6 6 11 15
10 9 8 8 10 11 13 17 2 9 8 6 7 9 4 3 7 4 5 4 6 9 12 9 11 8 13 8 13 13 15 28 13 19 5 11 8 9 4 5 9 9 7 3 7
8 5 7 9 12 14 13 6 6 13 9 7 6 3 1 7 5 5 2 8 3 10 10 12 9 11 14 17 18 11 17 10 2 5 7 1 2 7 8 5 11 14 7 6 2
7 6 7 9 14 18 12 12 14 11 12 9 4 1 4 7 5 3 6 8 1 3 7 6 14 14 11 3 11 15 16 26 12 8 16 13 10 15 12 7 5 9 10 3 6
7 8 5 8 13 17 17 9 17 11 11 10 7 9 6 5 4 6 7 5 11 9 8 8 11 12 15 14 14 14 12 21 23 14 13 12 16 3 13 11 7 6 5 5 4
7 6 6 12 6 12 15 14 13 14 11 16 13 11 6 6 5 5 6 7 7 10 8 5 8 8 12 16 17 19 18 17 12 20 10 22 14 6 14 8 8 3 4 5 8
5 7 6 11 14 13 12 16 19 15 14 11 15 10 10 8 3 7 8 8 0 5 8 5 8 10 12 14 9 13 16 19 17 16 6 19 5 16 7 9 6 4 3 1 2
Wind_Direction
349 348 344 341 338 334 330 328 323 320 323 318 318 313 310 312 298 228 242 39 43 217 243 230 230 230 239 246 147 156 2 222 155 222 133 173 122 79 27 127 200 124 132 133 141
350 345 343 338 333 332 332 327 322 321 316 314 312 308 308 316 275 243 86 105 352 226 224 212 212 214 230 223 205 181 67 181 151 138 122 245 108 117 153 134 135 174 125 134 151
350 344 340 336 333 328 323 319 319 318 315 311 306 305 306 300 255 100 61 143 213 238 259 241 277 239 257 247 136 30 60 95 111 135 281 50 141 154 148 153 151 127 144 148 161
349 345 343 336 331 326 322 317 315 313 310 305 302 304 306 264 300 68 120 178 214 262 244 223 231 229 257 196 110 129 43 78 124 147 218 83 314 133 91 48 147 142 152 159 166
347 345 343 334 330 324 321 318 312 309 305 299 299 307 279 212 48 92 143 167 205 226 226 224 228 242 258 56 233 116 121 98 144 153 165 140 18 357 59 120 149 133 158 162 172
346 343 337 330 329 327 321 316 311 305 296 290 292 302 249 159 23 119 157 179 207 222 216 236 240 318 321 263 59 85 116 133 137 111 129 117 26 320 128 124 129 151 161 166 170
345 339 332 330 330 323 320 317 307 296 285 279 285 279 270 72 97 137 176 196 196 238 213 235 284 232 221 202 126 160 129 90 99 147 114 110 6 299 309 144 149 166 165 155 150
345 338 333 332 330 324 318 312 303 284 268 264 268 263 82 151 32 222 166 161 208 228 284 220 266 278 261 115 209 223 194 159 125 159 96 284 177 262 282 192 165 180 158 159 165
343 337 334 333 329 323 316 311 301 259 236 242 240 229 106 135 214 188 249 229 180 209 229 282 246 248 196 235 213 199 160 338 114 134 125 53 146 247 292 290 204 183 173 178 157
338 333 331 333 329 320 312 297 200 225 214 226 265 259 169 89 111 165 159 209 185 188 202 217 222 227 229 226 286 46 57 111 125 136 133 150 171 262 272 284 272 180 187 172 173
336 333 330 330 322 313 305 206 201 196 223 9 34 63 132 89 160 194 182 210 192 202 205 208 220 217 229 252 84 98 132 158 121 145 155 190 219 196 209 262 270 290 280 194 175
336 334 331 325 317 310 272 311 23 347 270 111 86 144 306 275 133 155 217 199 204 208 218 191 233 223 298 76 262 245 111 78 110 170 241 170 178 148 153 260 269 266 240 238 183
336 333 327 324 321 270 289 10 335 317 256 137 71 75 132 222 115 144 228 166 221 213 218 226 196 72 215 214 252 262 262 176 124 182 231 174 146 166 181 205 254 260 264 303 285
334 330 326 321 289 323 242 357 324 308 265 138 181 103 181 180 113 123 282 295 234 209 204 256 100 242 224 242 226 260 52 300 131 244 142 258 23 174 171 193 217 240 260 256 208
332 327 320 328 317 268 5 320 323 241 245 98 93 79 167 253 135 161 197 228 210 168 248 133 156 213 236 238 214 267 221 278 259 291 306 134 272 137 159 193 204 223 221 227 260
329 323 319 210 223 273 304 305 263 235 130 131 141 192 198 169 119 124 194 247 45 219 234 320 261 228 243 228 270 274 252 259 251 249 248 87 269 132 174 192 187 223 225 221 224
323 313 285 307 293 347 298 267 234 267 118 147 179 192 226 144 141 189 186 189 220 209 190 191 193 219 262 229 200 227 234 221 220 209 241 153 280 193 182 165 178 190 206 226 202
315 308 194 263 309 277 265 247 264 40 226 117 241 218 223 177 124 162 180 205 212 287 267 227 174 189 181 248 194 217 251 265 42 334 357 228 214 27 89 156 174 178 191 205 222
312 199 232 192 217 245 253 237 243 246 46 251 161 237 156 184 289 237 323 39 44 341 334 276 173 152 175 231 266 215 226 268 321 188 302 171 236 144 82 93 140 185 189 191 219
297 242 200 142 189 225 240 261 346 313 298 247 255 208 254 160 222 230 159 100 162 306 299 34 267 177 178 244 239 256 324 243 207 219 270 272 176 123 165 179 150 138 224 195 187
250 229 107 160 202 228 235 245 186 187 230 257 266 242 269 182 276 186 106 114 233 116 296 307 291 199 205 215 255 203 235 237 309 95 222 336 3 91 122 119 133 121 275 278 193
283 237 137 176 218 228 230 249 67 185 209 238 287 299 278 202 253 257 304 70 56 318 296 4 303 271 206 313 121 127 274 272 264 188 142 122 271 269 62 162 137 87 6 317 329
261 239 154 216 228 228 230 265 201 238 200 218 244 236 147 274 248 267 228 74 318 281 18 353 258 251 247 202 208 230 245 231 99 39 282 242 333 117 122 122 163 116 86 59 79
271 231 164 209 250 266 253 206 209 240 267 215 252 275 228 239 206 282 221 149 172 342 45 305 271 290 306 265 264 274 323 320 185 186 223 210 170 163 137 124 108 115 104 22 52
239 260 8 199 217 236 254 212 228 210 211 237 216 231 235 241 217 205 259 170 181 126 239 257 279 289 292 307 284 276 143 289 294 282 260 114 266 32 116 124 108 109 126 162 49
304 320 338 269 295 256 228 244 244 229 201 227 226 222 231 252 297 336 305 259 268 158 241 246 282 274 286 281 270 269 269 260 205 252 313 337 215 100 95 114 135 112 126 147 175
26 270 265 281 242 241 238 219 240 245 258 231 207 237 194 222 269 352 306 305 339 262 271 266 299 295 281 299 300 276 264 259 254 262 320 216 11 340 116 147 116 128 109 182 327